Regional Weather Roundup
Issued by NWS

Home | Current Version | Previous Version | Graphics & Text | Print | Product List | Glossary On
Versions: 1 2 3 4 5 6 7 8 9 10 11 12 13 14 15 16 17 18 19 20 21 22 23 24 25 26 27 28 29 30 31 32 33 34 35 36 37 38 39 40 41 42 43 44 45 46 47 48 49 50
000
ASUS43 KFSD 161110
RWRSD

WEATHER ROUNDUP FOR SOUTH DAKOTA
NATIONAL WEATHER SERVICE SIOUX FALLS SD
500 AM CST TUE JAN 16 2018

NOTE: "FAIR" INDICATES FEW OR NO CLOUDS BELOW 12,000 FEET WITH NO
SIGNIFICANT WEATHER AND/OR OBSTRUCTIONS TO VISIBILITY.


SDZ001>005-009-010-012>017-161200-
NORTHWEST AND NORTH CENTRAL SOUTH DAKOTA

CITY           SKY/WX    TMP DP  RH WIND       PRES   REMARKS
BUFFALO          N/A    -15 -20  78 SE7       30.47F WCI -31
FAITH            N/A    -16 -20  82 SW7       30.65F WCI -32
MOBRIDGE       PTCLDY   -15 -21  74 CALM      30.73F
$$

SDZ012>016-024>037-041>051-057-063-072>074-161200-
SOUTHWEST AND SOUTH CENTRAL SOUTH DAKOTA

CITY           SKY/WX    TMP DP  RH WIND       PRES   REMARKS
RAPID CTY ARPT CLEAR    -11 -15  82 SE5       30.59F WCI -23
PIERRE         CLEAR     -8 -14  74 NW7       30.77F WCI -23
CUSTER         PTCLDY    -3 -25  34 NW3       30.38F
ELLSWORTH AFB  PTCLDY    -8 -12  82 S3        30.56F
PHILIP         PTCLDY   -14 -18  82 W5        30.74F WCI -26
PINE RIDGE     CLEAR    -18 -23  77 CALM      30.63F
SPEARFISH        N/A     -4 -13  65 S6        30.49F WCI -16
WINNER         FAIR      -6 -13  71 W9        30.76F WCI -23
$$

SDZ004>011-016>023-039-040-161200-
NORTHEAST SOUTH DAKOTA

CITY           SKY/WX    TMP DP  RH WIND       PRES   REMARKS
ABERDEEN       PTCLDY   -10 -17  71 N8        30.80F WCI -26
WATERTOWN      CLOUDY   -10 -14  82 NW9       30.68F WCI -27
BROOKINGS      CLOUDY    -8 -13  78 N12       30.69F WCI -27
SISSETON         N/A    -10 -15  78 NW13      30.77S WCI -30
$$

SDZ017-020-022-023-036>040-048>070-161200-
SOUTHEAST SOUTH DAKOTA

CITY           SKY/WX    TMP DP  RH WIND       PRES   REMARKS
SIOUX FALLS    CLOUDY    -5  -9  83 NW16      30.71S WCI -27
HURON          MOCLDY   -10 -16  74 NW10      30.80F WCI -29
CHAMBERLAIN    CLEAR     -7 -13  74 W9        30.79S WCI -24
MITCHELL       MOCLDY    -7 -14  71 NW13      30.81S WCI -27
YANKTON        LGT SNOW  -5 -10  79 NW14      30.78R WCI -25
$$

ABBREVIATIONS USED IN REMARKS
   TC - TEMPERATURE IN CELSIUS
  WCI - WIND CHILL INDEX
   HX - HEAT INDEX
  VSB - VISIBILITY





USA.gov is the U.S. government's official web portal to all federal, state and local government web resources and services.